OPS 6026 (DMSP 4A F1)

Satellite information

Favourite Embed

Satellite Type and Status

PAYLOADIN ORBIT

Key statistics

Satellite OPS 6026 (DMSP 4A F1) at a glance.

Uptime

21639

Days in orbit

Revolutions

≈ 14.4

Per day

Orbit

SSO

Sun Synchronous Orbit

Inclination

98.3

Latest

Satellite identification and parameters

Extended collection of information and parameters for OPS 6026 (DMSP 4A F1).

Object identification

Identified? True

Debris? False

Object name: OPS 6026 (DMSP 4A F1)

International designator: 1966-082A

Object number (NORAD): 2418

Object ID (CCSDS): 2418

Country: UNITED STATES OF AMERICA (US)

Current information (Y/N): Y

RCS size: MEDIUM

Orbital parameters

Period: 99.741 minutes

Inclination: 98.3136 deg

SMA: 7124.321 km

Apoapsis: 827.915 km

Periapsis: 664.457 km

RAAN: 138.0858 deg

Eccentricy: 0.0114718

Argument of periapsis: 230.9958 deg

Mean anomaly: 128.0974 deg

Mean motion: 14.43735223 rev/day

Mean motion (dot): 0.00000818 rev/day2

B* drag term: 0.00023512 1/REarth

Two-line elements (TLE)

Creation date: Dec. 12, 2025, 7:06 a.m.

Reference frame: TEME

Reference center: EARTH

Epoch: Dec. 11, 2025, 11:29 p.m. UTC

TLE line 0: 0 OPS 6026 (DMSP 4A F1)

TLE line 1: 1 2418U 66082A 25345.97860120 .00000818 00000-0 23512-3 0 9992

TLE line 2: 2 2418 98.3136 138.0858 0114718 230.9958 128.0974 14.43735223 85275

Live tracking on map

Real-time ground track for satellite OPS 6026 (DMSP 4A F1).

In-orbit conjunctions

There are no conjunctions computed for OPS 6026 (DMSP 4A F1), at the moment. Check back to stay up to date, as we update our databases every day.

Go to all conjunctions

Associated space launch

DSAP-4A (Defense Satellite Application Program Block 4A) was the fourth version of the military meteorological satellites of the Defense Meteorological Satellite Program.

OPS 6026 (DMSP 4A F1) was lifted into orbit during the mission ‘Thor Burner 2 | DSAP-4A F1’, on board a Thor Burner 2 space rocket.

The launch took place on Sept. 16, 1966, 4:36 a.m. from Space Launch Complex 10W.

For more information about the launch, click the button.

Launch to space Thor Burner 2 | DSAP-4A F1
Thor Burner 2 | DSAP-4A F1

Agency: N/A

Status: Launch Successful

Launch date: Sept. 16, 1966, 4:36 a.m. UTC

Rocket: Thor Burner 2

Launch pad: Space Launch Complex 10W

Location: Vandenberg SFB, CA, USA

...

Latest news about this satellite

There are no fresh news available about this satellite. Check back as we update our databases every day.


Newsletter sign-up

Weekly statistics, charts and insights to help you stay on top of the space industry.